Tracking 19219 objects as of 22-Jul-2018
HD Live streaming from Space Station
objects crossing your sky now

IRAZU

Track IRAZU now!
10-day predictions
IRAZU is classified as:


NORAD ID: 43468
Int'l Code: 1998-067NR
Perigee: 404.3 km
Apogee: 405.3 km
Inclination: 51.6 °
Period: 92.5 minutes
Semi major axis: 6775 km
RCS: Unknown
Launch date: November 30, 1998
Source: COSTA RICA (CRI)
Launch site: TYURATAM MISSILE AND SPACE COMPLEX (TTMTR)
Uplink (MHz):
Downlink (MHz): 436.500
Beacon (MHz):
Mode: 9600bps FSK
Call sign: TI0IRA
Status: Active

aabbcc
Your satellite tracking list
Your tracking list is empty




NASA's NSSDC Master Catalog

Two Line Element Set (TLE):
1 43468U 98067NR  18202.46300701 +.00010782 +00000-0 +15562-3 0  9999
2 43468 051.6382 206.9883 0000684 042.2944 317.8101 15.56541908111021
Source of the keplerian elements: AFSPC